TimeCDT,TemperatureF,Dew PointF,Humidity,Sea Level PressureIn,VisibilityMPH,Wind Direction,Wind SpeedMPH,Gust SpeedMPH,PrecipitationIn,Events,Conditions,WindDirDegrees,DateUTC
12:53 AM,68.0,63.0,84,29.95,10.0,SSE,4.6,-,N/A,,Scattered Clouds,150,2013-05-18 05:53:00
1:53 AM,64.9,62.1,90,29.95,9.0,SSE,4.6,-,N/A,,Clear,160,2013-05-18 06:53:00
2:53 AM,64.9,63.0,93,29.96,8.0,Calm,Calm,-,N/A,,Scattered Clouds,0,2013-05-18 07:53:00
3:53 AM,64.0,62.1,93,29.96,6.0,East,3.5,-,N/A,,Clear,80,2013-05-18 08:53:00
4:53 AM,63.0,62.1,97,29.96,5.0,ESE,3.5,-,N/A,,Clear,110,2013-05-18 09:53:00
5:53 AM,64.0,62.1,93,29.95,3.0,ESE,4.6,-,N/A,,Clear,120,2013-05-18 10:53:00
6:53 AM,64.9,63.0,93,29.97,3.0,East,5.8,-,N/A,,Clear,100,2013-05-18 11:53:00
7:36 AM,66.2,64.4,94,29.99,3.0,SE,5.8,-,N/A,,Partly Cloudy,130,2013-05-18 12:36:00
7:53 AM,66.9,64.0,90,29.98,3.0,ESE,5.8,-,N/A,,Scattered Clouds,120,2013-05-18 12:53:00
8:23 AM,68.0,64.4,88,30.00,4.0,SE,4.6,-,N/A,,Mostly Cloudy,140,2013-05-18 13:23:00
8:53 AM,69.1,64.9,87,29.99,5.0,South,5.8,-,N/A,,Mostly Cloudy,170,2013-05-18 13:53:00
9:53 AM,72.0,66.0,81,29.99,7.0,South,5.8,-,N/A,,Scattered Clouds,180,2013-05-18 14:53:00
10:53 AM,73.0,66.0,79,29.98,9.0,South,4.6,-,N/A,,Mostly Cloudy,170,2013-05-18 15:53:00
11:53 AM,75.0,64.9,71,29.97,10.0,South,8.1,-,N/A,,Mostly Cloudy,190,2013-05-18 16:53:00
12:53 PM,79.0,64.0,60,29.94,10.0,SSE,8.1,-,N/A,,Mostly Cloudy,160,2013-05-18 17:53:00
1:53 PM,80.1,64.0,58,29.92,10.0,South,11.5,-,N/A,,Mostly Cloudy,170,2013-05-18 18:53:00
2:53 PM,81.0,64.0,56,29.92,10.0,SSE,8.1,-,N/A,,Scattered Clouds,160,2013-05-18 19:53:00
3:53 PM,81.0,63.0,54,29.91,10.0,SSE,10.4,-,N/A,,Scattered Clouds,160,2013-05-18 20:53:00
4:53 PM,81.0,63.0,54,29.89,10.0,SSE,8.1,-,N/A,,Overcast,150,2013-05-18 21:53:00
5:53 PM,81.0,62.1,52,29.88,10.0,SSE,9.2,-,N/A,,Clear,150,2013-05-18 22:53:00
6:53 PM,79.0,63.0,58,29.89,10.0,South,8.1,-,N/A,,Partly Cloudy,170,2013-05-18 23:53:00
7:53 PM,77.0,62.1,60,29.88,10.0,SSE,6.9,-,N/A,,Partly Cloudy,150,2013-05-19 00:53:00
8:53 PM,73.9,62.1,66,29.87,10.0,SE,3.5,-,N/A,,Clear,130,2013-05-19 01:53:00
9:53 PM,72.0,62.1,71,29.86,10.0,SE,5.8,-,N/A,,Clear,130,2013-05-19 02:53:00
10:53 PM,70.0,62.1,76,29.86,10.0,SE,5.8,-,N/A,,Clear,130,2013-05-19 03:53:00
11:53 PM,70.0,62.1,76,29.86,10.0,SSE,5.8,-,N/A,,Clear,150,2013-05-19 04:53:00